TimeEDT,TemperatureF,Dew PointF,Humidity,Sea Level PressureIn,VisibilityMPH,Wind Direction,Wind SpeedMPH,Gust SpeedMPH,PrecipitationIn,Events,Conditions,WindDirDegrees,DateUTC
12:15 AM,55.4,53.6,94,29.90,10.0,ENE,5.8,-,N/A,,Overcast,60,2012-09-30 04:15:00
12:35 AM,55.4,55.4,100,29.89,10.0,NE,5.8,-,N/A,,Overcast,50,2012-09-30 04:35:00
12:55 AM,55.4,55.4,100,29.89,10.0,NE,4.6,-,N/A,,Overcast,40,2012-09-30 04:55:00
1:15 AM,55.4,55.4,100,29.90,10.0,NE,5.8,-,N/A,,Overcast,50,2012-09-30 05:15:00
1:55 AM,55.4,55.4,100,29.89,10.0,NE,4.6,-,N/A,,Overcast,40,2012-09-30 05:55:00
2:15 AM,55.4,55.4,100,29.88,10.0,NE,4.6,-,N/A,,Overcast,40,2012-09-30 06:15:00
2:35 AM,57.2,55.4,94,29.88,10.0,NE,4.6,-,N/A,,Overcast,50,2012-09-30 06:35:00
2:55 AM,55.4,55.4,100,29.87,10.0,North,3.5,-,N/A,,Overcast,10,2012-09-30 06:55:00
3:15 AM,55.4,55.4,100,29.87,10.0,NNE,4.6,-,N/A,,Overcast,30,2012-09-30 07:15:00
3:35 AM,55.4,55.4,100,29.86,10.0,NNE,3.5,-,N/A,,Overcast,20,2012-09-30 07:35:00
3:55 AM,57.2,55.4,94,29.87,9.0,North,3.5,-,N/A,,Overcast,10,2012-09-30 07:55:00
4:15 AM,57.2,55.4,94,29.86,10.0,North,3.5,-,N/A,,Overcast,10,2012-09-30 08:15:00
4:35 AM,55.4,55.4,100,29.85,10.0,NNE,4.6,-,N/A,,Overcast,20,2012-09-30 08:35:00
4:55 AM,55.4,55.4,100,29.85,10.0,North,6.9,-,N/A,Rain,Light Rain,10,2012-09-30 08:55:00
5:15 AM,55.4,55.4,100,29.85,2.0,NNE,6.9,-,0.07,Rain,Heavy Rain,20,2012-09-30 09:15:00
5:35 AM,55.4,55.4,100,29.84,4.0,NNE,6.9,-,0.13,Rain,Light Rain,30,2012-09-30 09:35:00
5:55 AM,55.4,55.4,100,29.83,7.0,NNE,6.9,-,0.15,Rain,Light Rain,20,2012-09-30 09:55:00
6:15 AM,55.4,55.4,100,29.83,6.0,NNE,6.9,-,0.01,Rain,Light Rain,20,2012-09-30 10:15:00
6:35 AM,55.4,55.4,100,29.83,5.0,North,5.8,-,0.04,Rain,Light Rain,10,2012-09-30 10:35:00
6:55 AM,55.4,55.4,100,29.83,5.0,North,6.9,-,0.07,Rain,Light Rain,10,2012-09-30 10:55:00
7:15 AM,55.4,55.4,100,29.83,5.0,North,6.9,-,0.01,Rain,Light Rain,10,2012-09-30 11:15:00
7:35 AM,55.4,55.4,100,29.83,3.0,NNE,5.8,-,0.06,Rain,Light Rain,20,2012-09-30 11:35:00
7:55 AM,55.4,55.4,100,29.83,2.5,NE,10.4,-,0.09,Rain,Light Rain,40,2012-09-30 11:55:00
8:15 AM,55.4,55.4,100,29.83,4.0,North,6.9,-,0.01,Rain,Light Rain,10,2012-09-30 12:15:00
8:35 AM,55.4,55.4,100,29.82,3.0,North,6.9,-,0.03,Rain,Light Rain,10,2012-09-30 12:35:00
8:55 AM,55.4,55.4,100,29.82,1.0,NNE,9.2,-,0.09,Rain,Rain,20,2012-09-30 12:55:00
9:15 AM,55.4,55.4,100,29.82,1.5,North,6.9,-,0.06,Rain,Rain,360,2012-09-30 13:15:00
9:35 AM,55.4,55.4,100,29.82,2.5,NNW,8.1,-,0.21,Rain,Rain,330,2012-09-30 13:35:00
9:55 AM,55.4,55.4,100,29.82,1.0,North,8.1,-,0.37,Rain,Heavy Rain,10,2012-09-30 13:55:00
10:15 AM,55.4,55.4,100,29.81,1.8,NNE,8.1,-,0.09,Rain,Heavy Rain,20,2012-09-30 14:15:00
10:35 AM,55.4,55.4,100,29.78,2.0,NNE,12.7,17.3,0.20,Rain,Heavy Rain,30,2012-09-30 14:35:00
10:55 AM,55.4,55.4,100,29.77,10.0,NNE,11.5,-,0.22,Rain,Light Rain,20,2012-09-30 14:55:00
11:15 AM,55.4,55.4,100,29.78,9.0,North,8.1,-,N/A,Rain,Light Rain,360,2012-09-30 15:15:00
11:35 AM,57.2,55.4,94,29.78,5.0,North,8.1,-,0.01,Rain,Light Rain,360,2012-09-30 15:35:00
11:55 AM,57.2,57.2,100,29.77,10.0,North,9.2,-,0.02,,Mostly Cloudy,350,2012-09-30 15:55:00
12:15 PM,59.0,57.2,94,29.77,10.0,North,10.4,-,N/A,,Overcast,350,2012-09-30 16:15:00
12:35 PM,59.0,57.2,94,29.77,10.0,North,9.2,-,N/A,,Overcast,360,2012-09-30 16:35:00
12:55 PM,59.0,55.4,88,29.77,10.0,North,5.8,-,N/A,,Overcast,360,2012-09-30 16:55:00
1:15 PM,59.0,55.4,88,29.78,9.0,WNW,8.1,-,N/A,,Overcast,290,2012-09-30 17:15:00
1:35 PM,59.0,57.2,94,29.77,2.5,NW,5.8,-,N/A,Rain,Light Rain,310,2012-09-30 17:35:00
1:55 PM,57.2,57.2,100,29.76,10.0,NW,8.1,-,N/A,,Mostly Cloudy,310,2012-09-30 17:55:00
2:15 PM,57.2,57.2,100,29.76,10.0,NNW,5.8,-,N/A,,Overcast,330,2012-09-30 18:15:00
2:35 PM,57.2,55.4,94,29.75,8.0,Calm,Calm,-,N/A,,Overcast,0,2012-09-30 18:35:00
2:55 PM,59.0,55.4,88,29.75,10.0,Calm,Calm,-,N/A,,Overcast,0,2012-09-30 18:55:00
3:15 PM,59.0,55.4,88,29.75,10.0,West,5.8,-,N/A,,Overcast,270,2012-09-30 19:15:00
3:35 PM,59.0,55.4,88,29.75,10.0,WSW,6.9,-,N/A,,Overcast,250,2012-09-30 19:35:00
3:55 PM,59.0,55.4,88,29.75,10.0,West,6.9,-,N/A,,Overcast,270,2012-09-30 19:55:00
4:15 PM,59.0,55.4,88,29.74,10.0,WSW,5.8,-,N/A,,Overcast,250,2012-09-30 20:15:00
4:35 PM,59.0,55.4,88,29.75,10.0,West,8.1,-,N/A,,Overcast,260,2012-09-30 20:35:00
4:55 PM,59.0,55.4,88,29.75,10.0,WSW,6.9,-,N/A,,Overcast,250,2012-09-30 20:55:00
5:15 PM,59.0,55.4,88,29.75,10.0,West,9.2,-,N/A,,Overcast,260,2012-09-30 21:15:00
5:35 PM,59.0,55.4,88,29.75,10.0,WSW,6.9,-,N/A,,Scattered Clouds,250,2012-09-30 21:35:00
5:55 PM,57.2,55.4,94,29.76,10.0,WSW,5.8,-,N/A,,Mostly Cloudy,250,2012-09-30 21:55:00
6:15 PM,57.2,53.6,88,29.76,10.0,SW,6.9,-,N/A,,Scattered Clouds,230,2012-09-30 22:15:00
6:35 PM,55.4,53.6,94,29.76,10.0,SW,5.8,-,N/A,,Scattered Clouds,230,2012-09-30 22:35:00
6:55 PM,53.6,51.8,94,29.76,10.0,SW,4.6,-,N/A,,Scattered Clouds,230,2012-09-30 22:55:00
7:15 PM,53.6,51.8,94,29.76,10.0,SW,5.8,-,N/A,,Scattered Clouds,220,2012-09-30 23:15:00
7:35 PM,53.6,51.8,94,29.77,10.0,SSW,6.9,-,N/A,,Scattered Clouds,200,2012-09-30 23:35:00
7:55 PM,53.6,53.6,100,29.77,10.0,SSW,8.1,-,N/A,,Partly Cloudy,210,2012-09-30 23:55:00
8:15 PM,53.6,53.6,100,29.77,10.0,SW,9.2,-,N/A,,Partly Cloudy,220,2012-10-01 00:15:00
8:35 PM,55.4,53.6,94,29.77,10.0,SSW,8.1,-,N/A,,Scattered Clouds,210,2012-10-01 00:35:00
8:55 PM,55.4,53.6,94,29.78,10.0,SW,8.1,-,N/A,,Mostly Cloudy,220,2012-10-01 00:55:00
9:15 PM,57.2,55.4,94,29.77,10.0,SW,8.1,-,N/A,,Partly Cloudy,220,2012-10-01 01:15:00
9:35 PM,57.2,53.6,88,29.77,10.0,SW,9.2,-,N/A,,Clear,220,2012-10-01 01:35:00
9:55 PM,57.2,53.6,88,29.78,10.0,SW,9.2,-,N/A,,Partly Cloudy,220,2012-10-01 01:55:00
10:15 PM,57.2,55.4,94,29.78,10.0,SW,10.4,-,N/A,,Scattered Clouds,220,2012-10-01 02:15:00
10:35 PM,57.2,53.6,88,29.78,10.0,SW,10.4,-,N/A,,Clear,220,2012-10-01 02:35:00
10:55 PM,57.2,53.6,88,29.78,10.0,SW,9.2,-,N/A,,Clear,230,2012-10-01 02:55:00
11:15 PM,57.2,53.6,88,29.77,10.0,SW,9.2,-,N/A,,Clear,230,2012-10-01 03:15:00
11:35 PM,55.4,51.8,88,29.77,10.0,SSW,8.1,-,N/A,,Clear,210,2012-10-01 03:35:00
11:55 PM,55.4,51.8,88,29.77,10.0,SW,9.2,-,N/A,,Partly Cloudy,220,2012-10-01 03:55:00